Content
SEND FEEDBACK

Daily
Averages
Monthly
Summary
United States of America

ANN ARBOR, MICHIGAN


Home > North America > United States > Michigan
Elevation: 759 feet     Latitude: 42 17N     Longitude: 083 43W

WEATHER
 
SELECT A DAY
Number of Records: 208,929;   Date Range: 1/1/95 - 12/20/14
 
SHARE

PRINT THIS DATA

[ ← Previous Day ]
WEATHER ALMANAC - JULY 22, 2014
[ Next Day → ]
[ °C ]   °F
Weather ElementAverageHighLow
Temperature67.2 °F89.1 °F (4:53 pm)55.4 °F (5:48 am)
Dewpoint58.7 °F66 °F (7:53 pm)53.1 °F (4:37 am)
Humidity77.8 %94 % (5:48 am)42 % (4:53 pm)
Barometer30.07 in30.12 in (4:18 am)29.94 in (6:53 pm)
Wind Speed3.2 mph13.8 mph (4:53 pm)
Wind Gust20.7 mph (2:53 pm)
Weather ElementAverage
Visibility4.8 mi
Wind DirectionENE (83.4 °)

Weather ElementTotal
Precipitation---
Cooling Degree Days7.3 (Base 65)
Growing Degree Days22.3 (Base 50)
Averaged from 38 records on July 22, 2014
WEATHER CONDITIONS BREAKOUT
WIND DIRECTION BREAKOUT
WEATHER BY HOUR - JULY 22, 2014
[ °C ]   °F
Local TimeTemperatureDewpointHumidityBarometerVisibilityWind DirectionWind SpeedGust SpeedPrecipitationEventsConditions
1:53 AM60.1 °F57.0 °F90 %30.10 in7.0 miCalmClear
2:29 AM57.9 °F55.9 °F93 %30.11 in1.8 miCalmClear
2:37 AM57.9 °F55.0 °F90 %30.11 in1.2 miCalmClear
2:40 AM57.9 °F55.9 °F93 %30.11 in2.0 miCalmClear
2:53 AM59.0 °F55.9 °F90 %30.10 in1.5 miCalmClear
3:02 AM57.9 °F55.9 °F93 %30.11 in0.8 miCalmClear
3:29 AM60.1 °F57.9 °F93 %30.11 in1.5 miCalmClear
3:31 AM59.0 °F57.0 °F93 %30.11 in3.0 miCalmClear
3:37 AM57.9 °F55.9 °F93 %30.11 in1.8 miCalmClear
3:40 AM57.0 °F55.0 °F93 %30.11 in0.8 miCalmClear
3:48 AM57.2 °F53.6 °F88 %30.11 in0.2 miCalmFogFog
3:53 AM57.0 °F54.0 °F89 %30.10 in0.5 miCalmFogFog
4:18 AM57.9 °F55.0 °F90 %30.12 in1.0 miCalmClear
4:37 AM55.9 °F53.1 °F90 %30.12 in0.2 miCalmFogFog
4:53 AM55.9 °F54.0 °F93 %30.11 in0.2 miCalmFogFog
5:32 AM57.0 °F55.0 °F93 %30.11 in2.0 miCalmClear
5:39 AM55.9 °F53.1 °F90 %30.11 in0.8 miCalmClear
5:48 AM55.4 °F53.6 °F94 %30.11 in0.5 miCalmFogFog
5:53 AM55.9 °F54.0 °F93 %30.10 in0.5 miCalmFogFog
6:20 AM57.0 °F55.0 °F93 %30.12 in0.2 miCalmFogFog
6:53 AM57.0 °F55.0 °F93 %30.11 in0.2 miCalmFogFog
7:19 AM60.1 °F57.9 °F93 %30.12 in2.0 miCalmClear
7:26 AM61.0 °F59.0 °F93 %30.12 in5.0 miCalmClear
7:53 AM64.9 °F62.1 °F90 %30.11 in7.0 miCalmClear
8:53 AM73.0 °F62.1 °F68 %30.11 in10.0 miSW (230°)5.8 mphClear
10:53 AM82.0 °F63.0 °F52 %30.07 in10.0 miSSW (210°)10.4 mphClear
11:53 AM82.9 °F63.0 °F51 %30.04 in10.0 miSW (230°)9.2 mphClear
12:53 PM84.9 °F63.0 °F48 %30.03 in10.0 miSSW (210°)9.2 mphClear
1:53 PM86.0 °F64.0 °F48 %30.01 in10.0 miSouth (190°)9.2 mphClear
2:53 PM88.0 °F63.0 °F43 %30.00 in10.0 miWSW (240°)10.4 mph20.7 mphClear
4:53 PM89.1 °F63.0 °F42 %29.98 in10.0 miSW (230°)13.8 mphClear
5:53 PM88.0 °F64.9 °F46 %29.96 in10.0 miWSW (240°)11.5 mphClear
6:53 PM86.0 °F64.9 °F49 %29.94 in10.0 miSW (230°)11.5 mphClear
7:53 PM84.0 °F66.0 °F55 %29.94 in10.0 miSW (220°)6.9 mphClear
8:53 PM81.0 °F64.9 °F58 %29.95 in10.0 miSW (230°)6.9 mphClear
9:53 PM78.1 °F64.9 °F64 %29.95 in10.0 miSW (230°)5.8 mphPartly Cloudy
10:53 PM78.1 °F64.9 °F64 %29.94 in10.0 miWSW (240°)5.8 mphClear
11:53 PM78.1 °F64.9 °F64 %29.94 in10.0 miWSW (240°)6.9 mphOvercast
Hourly data recorded from KARB, located miles away from Ann Arbor, Michigan







STORIES FROM OUR PARTNERS